Tracking 28790 objects as of 19-Apr-2024
HD Live streaming from Space Station
objects crossing your sky now

NSS 513 (INTELSAT 513)

Track NSS 513 (INTELSAT 513) now!
NSS 513 (INTELSAT 513) is classified as:


NORAD ID: 19121
Int'l Code: 1988-040A
Perigee: 36,213.1 km
Apogee: 36,341.0 km
Inclination: 15.0 °
Period: 1,460.9 minutes
Semi major axis: 42648 km
RCS: 9.2727 m2 (large)
Launch date: May 17, 1988
Source: Netherlands (NETH)
Launch site: FRENCH GUIANA (FRGUI)
Your satellite tracking list
Your tracking list is empty




NASA's NSSDC Master Catalog

Two Line Element Set (TLE):
1 19121U 88040A   24109.15967406 -.00000061  00000-0  00000-0 0  9996
2 19121  14.9763 354.5828 0014990  92.6238  93.6083  0.98572194106757
Source of the keplerian elements: AFSPC